• In Deutschland
  • Länderverzeichnis
  • Für 7 Tage
  • Wassertemperatur
  • Satellitenkarten
  • Wetterkarte
  • Widgets
  • user-avatar
    Anmelden

    Stündliche Wetter Ennepetal

    Heute, 14 Dezember, Donnerstag

    Zeit Temperatur Niederschläge Wind Luftdruck Luftfeuchtigkeit
    00:00 +3°C° 0 mm 4 m/S 716 mmHg 82%
    01:00 +1°C° 0,3 mm 4 m/S 716 mmHg 83%
    02:00 +1°C° 0,3 mm 4 m/S 716 mmHg 85%
    03:00 +1°C° 0,3 mm 4 m/S 715 mmHg 86%
    04:00 +1°C° 1 mm 5 m/S 716 mmHg 82%
    05:00 0°C° 1 mm 7 m/S 716 mmHg 79%
    06:00 -1°C° 0 mm 8 m/S 717 mmHg 78%
    07:00 -1°C° 0,3 mm 7 m/S 718 mmHg 77%
    08:00 -1°C° 0,3 mm 7 m/S 718 mmHg 76%
    09:00 -1°C° 0,3 mm 6 m/S 719 mmHg 75%
    10:00 +1°C° 0,3 mm 6 m/S 719 mmHg 75%
    11:00 0°C° 0,3 mm 7 m/S 719 mmHg 75%
    12:00 +2°C° 0,3 mm 7 m/S 719 mmHg 75%
    13:00 +2°C° 0,2 mm 6 m/S 718 mmHg 76%
    14:00 +1°C° 0,2 mm 5 m/S 718 mmHg 78%
    15:00 +1°C° 0,2 mm 4 m/S 718 mmHg 79%
    16:00 +1°C° 0 mm 4 m/S 718 mmHg 81%
    17:00 +1°C° 0 mm 3 m/S 717 mmHg 83%
    18:00 +1°C° 0 mm 3 m/S 717 mmHg 85%
    19:00 +1°C° 0 mm 3 m/S 717 mmHg 86%
    20:00 0°C° 0 mm 3 m/S 717 mmHg 87%
    21:00 +1°C° 0 mm 2 m/S 717 mmHg 88%
    22:00 +1°C° 0 mm 2 m/S 717 mmHg 89%
    23:00 +1°C° 0 mm 2 m/S 717 mmHg 90%

    Morgen, 15 Dezember, Freitag

    Zeit Temperatur Niederschläge Wind Luftdruck Luftfeuchtigkeit
    00:00 -1°C° 0 mm 2 m/S 717 mmHg 91%
    01:00 -1°C° 0 mm 2 m/S 717 mmHg 92%
    02:00 -1°C° 0 mm 2 m/S 717 mmHg 92%
    03:00 -1°C° 0 mm 2 m/S 717 mmHg 92%
    04:00 -1°C° 0 mm 2 m/S 718 mmHg 92%
    05:00 -1°C° 0 mm 2 m/S 718 mmHg 91%
    06:00 -2°C° 0 mm 2 m/S 719 mmHg 91%
    07:00 -1°C° 0 mm 2 m/S 719 mmHg 89%
    08:00 -1°C° 0 mm 2 m/S 719 mmHg 88%
    09:00 0°C° 0 mm 3 m/S 720 mmHg 86%
    10:00 +1°C° 0,1 mm 2 m/S 720 mmHg 85%
    11:00 +2°C° 0,1 mm 2 m/S 720 mmHg 85%
    12:00 +3°C° 0,1 mm 2 m/S 720 mmHg 84%
    13:00 +2°C° 0,2 mm 2 m/S 721 mmHg 86%
    14:00 +2°C° 0,2 mm 2 m/S 721 mmHg 87%
    15:00 +2°C° 0,2 mm 2 m/S 722 mmHg 89%
    16:00 +2°C° 0,1 mm 2 m/S 722 mmHg 90%
    17:00 +1°C° 0,1 mm 2 m/S 723 mmHg 92%
    18:00 +1°C° 0,1 mm 2 m/S 723 mmHg 93%
    19:00 +2°C° 0 mm 1 m/S 724 mmHg 93%
    20:00 +2°C° 0 mm 1 m/S 724 mmHg 94%
    21:00 +2°C° 0 mm 1 m/S 725 mmHg 94%
    22:00 +2°C° 0 mm 1 m/S 725 mmHg 94%
    23:00 +2°C° 0 mm 1 m/S 726 mmHg 94%

    übermorgen, 16 Dezember, Samstag

    Zeit Temperatur Niederschläge Wind Luftdruck Luftfeuchtigkeit
    00:00 +1°C° 0 mm 2 m/S 726 mmHg 94%
    01:00 +1°C° 0 mm 2 m/S 726 mmHg 94%
    02:00 +1°C° 0 mm 2 m/S 727 mmHg 93%
    03:00 +1°C° 0 mm 2 m/S 727 mmHg 93%
    04:00 +1°C° 0,1 mm 2 m/S 728 mmHg 93%
    05:00 +1°C° 0,1 mm 2 m/S 728 mmHg 93%
    06:00 +1°C° 0,1 mm 2 m/S 729 mmHg 94%
    07:00 +1°C° 0,1 mm 2 m/S 729 mmHg 92%
    08:00 0°C° 0,1 mm 3 m/S 730 mmHg 91%
    09:00 0°C° 0,1 mm 3 m/S 730 mmHg 90%
    10:00 +1°C° 0 mm 3 m/S 731 mmHg 85%
    11:00 +1°C° 0 mm 3 m/S 731 mmHg 81%
    12:00 +1°C° 0 mm 4 m/S 731 mmHg 77%
    13:00 +1°C° 0,2 mm 3 m/S 732 mmHg 78%
    14:00 +1°C° 0,2 mm 3 m/S 732 mmHg 79%
    15:00 +1°C° 0,2 mm 3 m/S 732 mmHg 80%
    16:00 0°C° 0,1 mm 3 m/S 733 mmHg 82%
    17:00 0°C° 0,1 mm 3 m/S 733 mmHg 84%
    18:00 0°C° 0,1 mm 3 m/S 734 mmHg 86%
    19:00 -1°C° 0,1 mm 3 m/S 735 mmHg 87%
    20:00 -1°C° 0,1 mm 3 m/S 735 mmHg 87%
    21:00 -1°C° 0,1 mm 3 m/S 736 mmHg 88%
    22:00 -1°C° 0,1 mm 3 m/S 736 mmHg 88%
    23:00 -2°C° 0,1 mm 3 m/S 737 mmHg 89%

    17 Dezember, Sonntag

    Zeit Temperatur Niederschläge Wind Luftdruck Luftfeuchtigkeit
    00:00 -2°C° 0,1 mm 3 m/S 737 mmHg 89%
    01:00 -2°C° 0,1 mm 3 m/S 737 mmHg 89%
    02:00 -2°C° 0,1 mm 3 m/S 738 mmHg 90%
    03:00 -2°C° 0,1 mm 3 m/S 738 mmHg 90%
    04:00 -2°C° 0,1 mm 3 m/S 738 mmHg 90%
    05:00 -2°C° 0,1 mm 3 m/S 739 mmHg 91%
    06:00 -2°C° 0,1 mm 2 m/S 739 mmHg 92%
    07:00 -2°C° 0 mm 3 m/S 740 mmHg 91%
    08:00 -1°C° 0 mm 3 m/S 740 mmHg 91%
    09:00 -1°C° 0 mm 3 m/S 741 mmHg 91%
    10:00 0°C° 0,1 mm 3 m/S 741 mmHg 90%
    11:00 0°C° 0,1 mm 3 m/S 741 mmHg 89%
    12:00 +1°C° 0,1 mm 3 m/S 742 mmHg 87%
    13:00 +1°C° 0,1 mm 3 m/S 742 mmHg 88%
    14:00 +1°C° 0,1 mm 3 m/S 742 mmHg 88%
    15:00 +1°C° 0,1 mm 3 m/S 742 mmHg 89%
    16:00 0°C° 0,1 mm 3 m/S 742 mmHg 90%
    17:00 0°C° 0,1 mm 3 m/S 743 mmHg 90%
    18:00 0°C° 0,1 mm 3 m/S 743 mmHg 91%
    19:00 0°C° 0 mm 3 m/S 743 mmHg 91%
    20:00 -1°C° 0 mm 4 m/S 743 mmHg 91%
    21:00 -1°C° 0 mm 4 m/S 743 mmHg 91%
    22:00 -1°C° 0,3 mm 4 m/S 742 mmHg 91%
    23:00 0°C° 0,3 mm 5 m/S 742 mmHg 91%

    18 Dezember, Montag

    Zeit Temperatur Niederschläge Wind Luftdruck Luftfeuchtigkeit
    00:00 0°C° 0,3 mm 5 m/S 741 mmHg 91%
    01:00 +1°C° 0,7 mm 6 m/S 741 mmHg 91%
    02:00 +1°C° 0,7 mm 6 m/S 740 mmHg 92%
    03:00 +2°C° 0,7 mm 7 m/S 739 mmHg 92%
    04:00 +3°C° 1,7 mm 7 m/S 739 mmHg 92%
    05:00 +3°C° 1,7 mm 7 m/S 739 mmHg 92%
    06:00 +3°C° 1,7 mm 7 m/S 739 mmHg 92%
    07:00 +3°C° 1,5 mm 6 m/S 739 mmHg 93%
    08:00 +3°C° 1,5 mm 6 m/S 739 mmHg 93%
    09:00 +3°C° 1,5 mm 5 m/S 739 mmHg 93%
    10:00 +5°C° 0,3 mm 5 m/S 739 mmHg 90%
    11:00 +5°C° 0,3 mm 5 m/S 739 mmHg 87%
    12:00 +5°C° 0,3 mm 5 m/S 739 mmHg 84%
    13:00 +3°C° 0 mm 5 m/S 740 mmHg 84%
    14:00 +4°C° 0 mm 4 m/S 740 mmHg 84%
    15:00 +4°C° 0 mm 4 m/S 740 mmHg 84%
    16:00 +3°C° 0 mm 4 m/S 741 mmHg 86%
    17:00 +2°C° 0 mm 3 m/S 742 mmHg 88%
    18:00 +2°C° 0 mm 3 m/S 742 mmHg 90%
    19:00 +1°C° 0 mm 3 m/S 743 mmHg 91%
    20:00 +2°C° 0 mm 2 m/S 744 mmHg 92%
    21:00 +2°C° 0 mm 2 m/S 744 mmHg 93%
    22:00 +2°C° 0 mm 2 m/S 745 mmHg 94%
    23:00 +2°C° 0 mm 1 m/S 745 mmHg 94%

    19 Dezember, Dienstag

    Zeit Temperatur Niederschläge Wind Luftdruck Luftfeuchtigkeit
    00:00 +2°C° 0 mm 1 m/S 745 mmHg 95%
    01:00 +2°C° 0 mm 1 m/S 746 mmHg 95%
    02:00 +2°C° 0 mm 1 m/S 746 mmHg 95%
    03:00 0°C° 0 mm 0 m/S 746 mmHg 96%
    04:00 0°C° 0 mm 0 m/S 747 mmHg 95%
    05:00 0°C° 0 mm 0 m/S 747 mmHg 95%
    06:00 0°C° 0 mm 0 m/S 747 mmHg 95%
    07:00 0°C° 0 mm 0 m/S 748 mmHg 94%
    08:00 +1°C° 0 mm 1 m/S 748 mmHg 93%
    09:00 +2°C° 0 mm 1 m/S 748 mmHg 92%
    10:00 +2°C° 0 mm 1 m/S 748 mmHg 89%
    11:00 +3°C° 0 mm 1 m/S 748 mmHg 87%
    12:00 +4°C° 0 mm 1 m/S 748 mmHg 84%
    13:00 +3°C° 0 mm 1 m/S 747 mmHg 86%
    14:00 +3°C° 0 mm 1 m/S 747 mmHg 88%
    15:00 +3°C° 0 mm 1 m/S 747 mmHg 90%
    16:00 +2°C° 0 mm 1 m/S 747 mmHg 89%
    17:00 +2°C° 0 mm 1 m/S 747 mmHg 89%
    18:00 +2°C° 0 mm 1 m/S 747 mmHg 89%
    19:00 +2°C° 0 mm 1 m/S 747 mmHg 87%
    20:00 +2°C° 0 mm 1 m/S 747 mmHg 86%
    21:00 +1°C° 0 mm 2 m/S 747 mmHg 85%
    22:00 +1°C° 0 mm 2 m/S 747 mmHg 84%
    23:00 +1°C° 0 mm 2 m/S 746 mmHg 83%
    Mehr zeigen